Location: Bacharowice
(49.9333°N, 19.5833°E)
Time: 08:25:34
(UTC+00:00)

Cosmos 2344 - Pass Details

Date: 04 October 2021
Orbit: 1235 x 3007 km, 63.3° (Epoch: 19 October)

Event Time Altitude Azimuth Distance (km) Brightness Sun altitude
Rises 19:52:55 0° 313° (NW) 4,382 7.5 -34.0°
Reaches altitude 10° 19:55:31 10° 317° (NW) 3,521 6.7 -34.3°
Maximum altitude 20:04:08 67° 40° (NE) 1,833 4.2 -35.3°
Enters shadow 20:05:16 64° 73° (ENE) 1,925 4.2 -35.4°
